This demonstration page uses our WeatherBlox Daily Observations layout. Learn more.

Left ArrowRight Arrow

Hourly Observations for January 31, 2016

Temp ( °F °C ) Dew Point ( °F °C ) Humidity (%) Winds ( mph kmh ) Pressure ( in mb ) Visibility ( mi km ) Precip ( " mm )
12:59 am 00:59 Clear 44 6.7 34 1.1 68 68 S 7 11 30.09 1019 10 16 0.00 0.00
1:59 am 01:59 Clear 43 6.1 34 1.1 71 71 SSW 7 11 30.08 1019 10 16 0.00 0.00
2:59 am 02:59 Clear 43 6.1 35 1.7 74 74 SSW 7 11 30.07 1018 10 16 0.00 0.00
3:59 am 03:59 Clear 44 6.7 36 2.2 73 73 SW 10 17 30.07 1018 10 16 0.00 0.00
4:59 am 04:59 Clear 45 7.2 35 1.7 68 68 SW 10 17 30.08 1019 10 16 0.00 0.00
5:59 am 05:59 Mostly Clear 45 7.2 35 1.7 68 68 SW 10 17 30.09 1019 10 16 0.00 0.00
6:59 am 06:59 Partly Cloudy 46 7.8 35 1.7 66 66 SW 12 19 30.09 1019 10 16 0.00 0.00
7:59 am 07:59 Partly Cloudy 48 8.9 35 1.7 61 61 SW 12 19 30.10 1019 10 16 0.00 0.00
8:59 am 08:59 Mostly Sunny 52 11.1 36 2.2 55 55 SW 13 20 30.11 1020 10 16 0.00 0.00
9:59 am 09:59 Mostly Sunny 56 13.3 38 3.3 51 51 SW 10 17 30.11 1020 10 16 0.00 0.00
10:59 am 10:59 Mostly Sunny 62 16.7 39 3.9 43 43 SW 10 17 30.08 1019 10 16 0.00 0.00
11:59 am 11:59 Mostly Sunny 65 18.3 39 3.9 39 39 SW 14 22 30.04 1017 10 16 0.00 0.00
12:59 pm 12:59 Partly Cloudy 67 19.4 40 4.4 37 37 SW 16 26 30.00 1016 10 16 0.00 0.00
1:59 pm 13:59 Mostly Cloudy 68 20 39 3.9 35 35 SW 14 22 29.98 1015 10 16 0.00 0.00
2:59 pm 14:59 Mostly Cloudy 68 20 37 2.8 32 32 SSW 13 20 29.97 1015 10 16 0.00 0.00
3:59 pm 15:59 Mostly Cloudy 66 18.9 37 2.8 34 34 SSW 9 15 29.96 1015 10 16 0.00 0.00
4:59 pm 16:59 Mostly Cloudy 65 18.3 37 2.8 36 36 S 9 15 29.96 1015 10 16 0.00 0.00
5:59 pm 17:59 Mostly Cloudy 64 17.8 35 1.7 34 34 S 9 15 29.96 1014 10 16 0.00 0.00
7:59 pm 19:59 Mostly Cloudy 61 16.1 35 1.7 38 38 SSW 9 15 29.97 1015 10 16 0.00 0.00
8:59 pm 20:59 Mostly Cloudy 62 16.7 36 2.2 38 38 SSW 10 17 29.97 1015 10 16 0.00 0.00
9:59 pm 21:59 Mostly Cloudy 60 15.6 37 2.8 42 42 SSW 13 20 29.97 1015 10 16 0.00 0.00
10:59 pm 22:59 Cloudy 59 15 40 4.4 49 49 SSW 14 22 29.96 1015 10 16 0.00 0.00
11:59 pm 23:59 Cloudy 59 15 42 5.6 54 54 SSW 14 22 29.95 1014 10 16 0.00 0.00

Powered by AerisWeather